Location: Appleton
(44.2618°N, 88.4157°W)
Time: 10:50:04
(UTC+00:00)

S-56A Canister/Altair - Pass Details

Date: 06 March 2021
Orbit: 632 x 2500 km, 38.9° (Epoch: 14 April)

Event Time Altitude Azimuth Distance (km) Brightness Sun altitude
Rises 02:53:59 0° 281° (W) 6,070 13.1 -33.2°
Reaches altitude 10° 03:01:16 10° 259° (W) 4,789 12.1 -34.3°
Maximum altitude 03:06:18 13° 236° (WSW) 4,261 11.5 -35.1°
Drops below altitude 10° 03:10:50 10° 213° (SSW) 4,215 11.3 -35.8°
Enters shadow 03:14:05 - 197° (SSW) 4,467 11.3 -36.3°
Sets 03:16:23 0° 188° (S) 4,775 - -36.6°
